ROMMA est une association bénévole à but non lucratif. Votre soutien est indispensable : ADHERER à ROMMA ou FAIRE un DON

Le Versoud - (38, Isère)

Vallée du Grésivaudan (220 m)   Longitude: 05° 51' 44" E   Latitude: 45° 13' 06" N Station partenaire n°6
 

Détail journalier du     <<     >>

Température Humidité Pression Vent Dir Rafale Dir. rafale Ensol.
Heure (°C) (%) (hPa) (km/h) (km/h) (min)
01:00 13.995101300---0
02:00 13.895101303NNE0
03:00 13.395101302NE0
04:00 12.895101105NNE0
05:00 12.195101000---0
06:00 11.396101000---0
07:00 10.896101000---0
08:00 10.296101100---0
09:00 9.996101100---0
10:00 10.197101200---0
11:00 13.194101302NNE50
12:00 14.486101302NE10
13:00 16.180101400---20
14:00 16.874101300---5
15:00 16.977101302E0
16:00 17.177101308ENE0
17:00 17.278101308NE15
18:00 17.1761014010NNE60
19:00 15.086101402NE10
20:00 13.791101500---0
21:00 13.291101608NE0
22:00 13.193101700---0
23:00 12.294101700---0
minuit 11.395101800---0

Graphique du 24-10-2019

 

Serveur OMMA